7 * 24
多渠道服务支持
STARLINK-11475是美国SpaceX公司于2024年12月5日发射的星链卫星,星链是全球知名低轨卫星互联网项目,旨在为全球偏远、网络欠发达区域提供高速低延迟宽带服务。 该卫星归入星链巨型星座,继承星链系统设计,工作在近地轨道,能为用户提供百兆级下载速率,助力补足地面网络覆盖盲区,支撑远程办公、流媒体视频等多元应用场景,是星链星座扩容的重要节点。
美国
(US)
| 数据来源 | 国际轨道数据 |
| 星历时间: | 2026-09-10T17:27:52+0800 23小时前 查看轨道信息 |
| 半长轴: | 6737.777km |
| 偏心率: | 0.0000917 |
| 轨道倾角: | 53.156° |
| 近地点辐角 | 80.307° |
| 升交点赤经 | 270.576° |
| 平近点角 | 279.805° |
| 近地点: | 359.022km |
| 远地点: | 360.258km |
| 周期: | 91.735分钟 |
| 每日圈数: | 15.697406 |